Weather History for El Centro, CA

Change the Weather History Date:

Tuesday, May 28, 2013

  Actual Average Record
Temperature  
Mean Temperature 87 °F -  
Max Temperature 99 °F 96 °F 108 °F (2003)
Min Temperature 75 °F 68 °F 60 °F (2012)
Cooling Degree Days 22    
Growing Degree Days 37 (Base 50)    
Moisture  
Dew Point 44 °F    
Average Humidity 25    
Maximum Humidity 39    
Minimum Humidity 14    
Precipitation  
Precipitation 0.00 in - - ()
Sea Level Pressure  
Sea Level Pressure 29.66 in    
Wind  
Wind Speed 14 mph (WSW)    
Max Wind Speed 23 mph    
Max Gust Speed 32 mph    
Visibility 10 miles    
Events      
Averages and records for this station are not official NWS values.
T = Trace of Precipitation, MM = Missing Value Source: NWS Daily Summary

Daily Weather History Graph

Daily Weather History Graph

Search for Another Location

Airport:

Trip Planner

Search our weather history database for the weather conditions in past years. The results will help you decide how hot, cold, wet, or windy it might be!

Date:

Astronomy

May. 28, 2013 Rise Set
Actual Time 5:36 AM PDT 7:43 PM PDT
Civil Twilight 5:08 AM PDT 8:11 PM PDT
Nautical Twilight 4:34 AM PDT 8:45 PM PDT
Astronomical Twilight 3:57 AM PDT 9:22 PM PDT
Moon 11:17 PM PDT (5/28) 9:24 AM PDT (5/28)
Length of Visible Light 15h 03m
Length of Day
14h 07m
Waning Gibbous, 82% of the Moon is Illuminated
May 28
Waning Gibbous
May 31
Last Quarter
Jun 8
New
Jun 16
First Quarter
Jun 23
Full

Hourly Weather History & Observations

Time (PDT) Temp. Dew Point Humidity Pressure Visibility Wind Dir Wind Speed Gust Speed Precip Events Conditions
12:56 AM 77.0 °F 39.9 °F 26% 29.72 in 10.0 mi WSW 13.8 mph - N/A   Clear
1:56 AM 77.0 °F 41.0 °F 28% 29.70 in 10.0 mi WSW 16.1 mph - N/A   Clear
2:56 AM 75.9 °F 41.0 °F 29% 29.70 in 10.0 mi WSW 12.7 mph - N/A   Clear
3:56 AM 75.9 °F 41.0 °F 29% 29.70 in 10.0 mi WSW 17.3 mph - N/A   Clear
4:56 AM 75.9 °F 43.0 °F 31% 29.70 in 10.0 mi WSW 16.1 mph - N/A   Clear
5:56 AM 75.0 °F 42.1 °F 31% 29.68 in 10.0 mi WSW 13.8 mph - N/A   Clear
6:56 AM 78.1 °F 43.0 °F 29% 29.70 in 10.0 mi WSW 11.5 mph - N/A   Partly Cloudy
7:56 AM 82.0 °F 42.1 °F 24% 29.70 in 10.0 mi WSW 11.5 mph - N/A   Partly Cloudy
8:56 AM 86.0 °F 41.0 °F 20% 29.70 in 10.0 mi WSW 15.0 mph - N/A   Partly Cloudy
9:56 AM 88.0 °F 39.9 °F 18% 29.69 in 10.0 mi WSW 13.8 mph - N/A   Mostly Cloudy
10:56 AM 88.0 °F 41.0 °F 19% 29.69 in 10.0 mi WSW 6.9 mph - N/A   Mostly Cloudy
11:56 AM 91.0 °F 41.0 °F 17% 29.68 in 10.0 mi SSW 9.2 mph - N/A   Scattered Clouds
12:56 PM 93.0 °F 43.0 °F 18% 29.67 in 10.0 mi WSW 9.2 mph - N/A   Scattered Clouds
1:56 PM 93.9 °F 42.1 °F 17% 29.63 in 10.0 mi SW 11.5 mph - N/A   Scattered Clouds
2:56 PM 96.1 °F 39.0 °F 14% 29.61 in 10.0 mi Variable 5.8 mph - N/A   Partly Cloudy
3:56 PM 99.0 °F 42.1 °F 14% 29.59 in 10.0 mi West 11.5 mph 20.7 mph N/A   Partly Cloudy
4:56 PM 96.1 °F 44.1 °F 17% 29.60 in 10.0 mi NW 15.0 mph 32.2 mph N/A   Clear
5:56 PM 93.9 °F 45.0 °F 18% 29.59 in 10.0 mi West 23.0 mph 27.6 mph N/A   Clear
6:56 PM 90.0 °F 46.0 °F 22% 29.60 in 10.0 mi West 20.7 mph 26.5 mph N/A   Clear
7:56 PM 84.9 °F 48.0 °F 28% 29.61 in 10.0 mi WSW 16.1 mph - N/A   Clear
8:56 PM 82.0 °F 48.9 °F 31% 29.63 in 10.0 mi WSW 15.0 mph - N/A   Clear
9:56 PM 79.0 °F 50.0 °F 36% 29.65 in 10.0 mi West 15.0 mph - N/A   Clear
10:56 PM 78.1 °F 50.0 °F 37% 29.66 in 10.0 mi WSW 11.5 mph - N/A   Clear
11:56 PM 77.0 °F 50.0 °F 39% 29.66 in 10.0 mi SW 11.5 mph - N/A   Clear